This is the latest recevied weather packets stored in our database for station/object WA7CUG. If no packets are shown the sender has not sent any weather packets the latest 10 day(s).
| Time | Temp. | Humidity | Pressure | Rain* | Wind** | Luminosity | Snow |
|---|---|---|---|---|---|---|---|
| 1778069743 | 11.11° C | 76% | 1012.8 hPa | 0 mm | - | 0 W/m² | - |
| 1778069439 | 11.67° C | 74% | 1012.7 hPa | 0 mm | - | 0 W/m² | - |
| 1778069137 | 12.22° C | 73% | 1012.5 hPa | 0 mm | - | 0 W/m² | - |
| 1778068834 | 13.33° C | 67% | 1012.6 hPa | 0 mm | - | 0 W/m² | - |
| 1778068532 | 13.33° C | 67% | 1012.4 hPa | 0 mm | - | 0 W/m² | - |
| 1778068231 | 12.78° C | 69% | 1012.6 hPa | 0 mm | - | 0 W/m² | - |
| 1778067927 | 11.67° C | 74% | 1012.7 hPa | 0 mm | - | 0 W/m² | - |
| 1778067626 | 11.67° C | 76% | 1012.7 hPa | 0 mm | - | 0 W/m² | - |
| 1778067324 | 12.22° C | 73% | 1012.7 hPa | 0 mm | - | 0 W/m² | - |
| 1778067021 | 12.22° C | 74% | 1012.4 hPa | 0 mm | - | 0 W/m² | - |
| 1778066717 | 12.22° C | 73% | 1012.5 hPa | 0 mm | - | 0 W/m² | - |
| 1778066415 | 12.22° C | 72% | 1012.6 hPa | 0 mm | - | 0 W/m² | - |
| 1778066113 | 12.22° C | 73% | 1012.7 hPa | 0 mm | - | 0 W/m² | - |
| 1778065809 | 12.78° C | 71% | 1012.4 hPa | 0 mm | - | 0 W/m² | - |
| 1778065507 | 12.78° C | 69% | 1012.6 hPa | 0 mm | - | 0 W/m² | - |
| 1778065204 | 12.78° C | 70% | 1012.4 hPa | 0 mm | - | 0 W/m² | - |
| 1778064900 | 13.33° C | 69% | 1012.3 hPa | 0 mm | - | 0 W/m² | - |
| 1778064597 | 13.33° C | 68% | 1012.3 hPa | 0 mm | - | 0 W/m² | - |
| 1778064295 | 13.89° C | 67% | 1012.2 hPa | 0 mm | - | 0 W/m² | - |
| 1778063993 | 13.89° C | 65% | 1012.3 hPa | 0 mm | - | 0 W/m² | - |
| 1778063690 | 14.44° C | 65% | 1012 hPa | 0 mm | - | 0 W/m² | - |
| 1778063387 | 14.44° C | 64% | 1012 hPa | 0 mm | - | 0 W/m² | - |
| 1778063085 | 15° C | 63% | 1011.8 hPa | 0 mm | - | 0 W/m² | - |
| 1778062782 | 15° C | 62% | 1011.9 hPa | 0 mm | - | 0 W/m² | - |
| 1778062478 | 15° C | 62% | 1012 hPa | 0 mm | - | 0 W/m² | - |
* Rain latest hour (hover to see other rain measurements)
** Current wind speed in m/s (hover to see current wind gust speed)